| time (UTC) | temp F | wind direction | speed MPH | gust MPH | rain 1hr in | rain 24hr in | rain mn in | humidity % | barometer mb |
| 20260831174519 | 64 | 248 | 9.0 | 17.0 | 0.00 | 0.14 | 0.14 | 80 | 1018.7 |
| 20260831173519 | 65 | 270 | 10.0 | 19.0 | 0.00 | 0.14 | 0.14 | 80 | 1019.0 |
| 20260831172519 | 64 | 292 | 6.0 | 14.0 | 0.00 | 0.14 | 0.14 | 81 | 1018.9 |
| 20260831171519 | 64 | 292 | 3.0 | 9.0 | 0.01 | 0.14 | 0.14 | 82 | 1018.5 |
| 20260831170518 | 64 | 270 | 5.0 | 10.0 | 0.03 | 0.14 | 0.14 | 81 | 1018.5 |
| 20260831165518 | 64 | 292 | 4.0 | 8.0 | 0.03 | 0.14 | 0.14 | 81 | 1018.4 |
| 20260831164518 | 64 | 292 | 7.0 | 13.0 | 0.03 | 0.14 | 0.14 | 80 | 1018.3 |
| 20260831163518 | 64 | 270 | 9.0 | 17.0 | 0.03 | 0.14 | 0.14 | 79 | 1018.6 |
| 20260831162518 | 65 | 270 | 10.0 | 17.0 | 0.03 | 0.14 | 0.14 | 80 | 1018.6 |
| 20260831161520 | 66 | 292 | 14.0 | 32.0 | 0.02 | 0.13 | 0.13 | 77 | 1018.7 |
| 20260831160519 | 71 | 270 | 15.0 | 33.0 | 0.00 | 0.11 | 0.11 | 64 | 1018.3 |
| 20260831155519 | 73 | 248 | 11.0 | 24.0 | 0.00 | 0.11 | 0.11 | 56 | 1017.7 |
| 20260831154519 | 74 | 248 | 9.0 | 17.0 | 0.00 | 0.11 | 0.11 | 55 | 1017.7 |
| 20260831153519 | 74 | 248 | 10.0 | 18.0 | 0.00 | 0.11 | 0.11 | 55 | 1017.6 |
| 20260831152518 | 73 | 270 | 10.0 | 20.0 | 0.00 | 0.11 | 0.11 | 56 | 1017.5 |
| 20260831151518 | 73 | 248 | 8.0 | 18.0 | 0.00 | 0.11 | 0.11 | 57 | 1017.5 |
| 20260831150517 | 73 | 225 | 6.0 | 14.0 | 0.00 | 0.11 | 0.11 | 55 | 1017.5 |
| 20260831145517 | 73 | 248 | 8.0 | 13.0 | 0.00 | 0.11 | 0.11 | 55 | 1017.6 |
| 20260831144517 | 74 | 292 | 7.0 | 12.0 | 0.00 | 0.11 | 0.11 | 56 | 1017.4 |
| 20260831143519 | 74 | 248 | 9.0 | 17.0 | 0.00 | 0.11 | 0.11 | 54 | 1017.4 |
| 20260831142518 | 73 | 270 | 10.0 | 19.0 | 0.00 | 0.11 | 0.11 | 57 | 1017.5 |
| 20260831141518 | 74 | 270 | 8.0 | 17.0 | 0.00 | 0.11 | 0.11 | 53 | 1017.5 |
| 20260831140518 | 74 | 270 | 9.0 | 14.0 | 0.00 | 0.11 | 0.11 | 53 | 1017.4 |
| 20260831135518 | 74 | 292 | 7.0 | 12.0 | 0.00 | 0.11 | 0.11 | 53 | 1017.4 |
| 20260831134518 | 74 | 292 | 7.0 | 14.0 | 0.00 | 0.11 | 0.11 | 54 | 1017.6 |
| 20260831134231 | 74 | 292 | 8.0 | 15.0 | 0.00 | 0.11 | 0.11 | 53 | 1017.6 |
| 20260831133231 | 74 | 292 | 9.0 | 18.0 | 0.00 | 0.11 | 0.11 | 54 | 1017.6 |
| 20260831132231 | 74 | 292 | 8.0 | 15.0 | 0.00 | 0.11 | 0.11 | 55 | 1017.7 |
| 20260831131231 | 74 | 292 | 9.0 | 16.0 | 0.00 | 0.11 | 0.11 | 55 | 1017.8 |
| 20260831130231 | 76 | 270 | 11.0 | 20.0 | 0.00 | 0.11 | 0.11 | 52 | 1017.9 |
| 20260831125232 | 76 | 248 | 9.0 | 18.0 | 0.00 | 0.11 | 0.11 | 51 | 1017.8 |
| 20260831124232 | 76 | 225 | 11.0 | 24.0 | 0.00 | 0.11 | 0.11 | 49 | 1017.9 |
| 20260831123232 | 76 | 225 | 12.0 | 22.0 | 0.00 | 0.11 | 0.11 | 52 | 1017.8 |
| 20260831122232 | 74 | 248 | 10.0 | 21.0 | 0.00 | 0.11 | 0.11 | 53 | 1017.8 |
| 20260831121232 | 74 | 225 | 10.0 | 17.0 | 0.00 | 0.11 | 0.11 | 55 | 1017.9 |
| 20260831120231 | 74 | 248 | 9.0 | 18.0 | 0.00 | 0.11 | 0.11 | 55 | 1017.9 |
| 20260831115231 | 74 | 248 | 10.0 | 21.0 | 0.00 | 0.11 | 0.11 | 56 | 1017.9 |
| 20260831114231 | 73 | 225 | 9.0 | 26.0 | 0.00 | 0.11 | 0.11 | 58 | 1018.0 |
| 20260831113233 | 72 | 248 | 8.0 | 15.0 | 0.00 | 0.11 | 0.11 | 59 | 1018.0 |
| 20260831112233 | 71 | 248 | 7.0 | 14.0 | 0.00 | 0.11 | 0.11 | 59 | 1018.1 |
| 20260831111232 | 72 | 248 | 9.0 | 18.0 | 0.00 | 0.11 | 0.11 | 57 | 1018.1 |
| 20260831110232 | 72 | 248 | 8.0 | 16.0 | 0.00 | 0.11 | 0.11 | 56 | 1018.1 |
| 20260831105232 | 72 | 248 | 10.0 | 17.0 | 0.00 | 0.11 | 0.11 | 58 | 1018.2 |
| 20260831104232 | 72 | 248 | 9.0 | 17.0 | 0.00 | 0.11 | 0.11 | 56 | 1018.1 |
| 20260831103231 | 71 | 248 | 9.0 | 19.0 | 0.00 | 0.11 | 0.11 | 57 | 1018.1 |
| 20260831102231 | 71 | 248 | 10.0 | 19.0 | 0.00 | 0.11 | 0.11 | 57 | 1018.1 |
| 20260831101231 | 72 | 248 | 10.0 | 24.0 | 0.00 | 0.11 | 0.11 | 56 | 1018.1 |
| 20260831100231 | 71 | 248 | 12.0 | 20.0 | 0.00 | 0.11 | 0.11 | 58 | 1018.1 |
| 20260831095231 | 71 | 248 | 10.0 | 21.0 | 0.00 | 0.11 | 0.11 | 58 | 1018.1 |
| 20260831094233 | 71 | 248 | 11.0 | 22.0 | 0.00 | 0.11 | 0.11 | 59 | 1018.2 |
| 20260831093233 | 71 | 248 | 10.0 | 18.0 | 0.00 | 0.11 | 0.11 | 60 | 1018.1 |
| 20260831092232 | 70 | 248 | 10.0 | 19.0 | 0.00 | 0.11 | 0.11 | 63 | 1018.1 |
| 20260831091232 | 70 | 270 | 9.0 | 19.0 | 0.00 | 0.11 | 0.11 | 64 | 1018.0 |
| 20260831090232 | 69 | 248 | 11.0 | 23.0 | 0.00 | 0.11 | 0.11 | 65 | 1018.0 |
| 20260831085232 | 69 | 248 | 11.0 | 23.0 | 0.00 | 0.11 | 0.11 | 66 | 1018.0 |
| 20260831084232 | 69 | 270 | 11.0 | 20.0 | 0.00 | 0.11 | 0.11 | 68 | 1018.0 |
| 20260831083232 | 68 | 248 | 10.0 | 20.0 | 0.00 | 0.11 | 0.11 | 69 | 1017.9 |
| 20260831082231 | 68 | 292 | 10.0 | 16.0 | 0.00 | 0.11 | 0.11 | 74 | 1017.8 |
| 20260831081231 | 68 | 270 | 9.0 | 16.0 | 0.00 | 0.11 | 0.11 | 76 | 1017.6 |
| 20260831080231 | 68 | 270 | 8.0 | 14.0 | 0.01 | 0.11 | 0.11 | 78 | 1017.6 |
| 20260831075231 | 68 | 270 | 7.0 | 13.0 | 0.01 | 0.11 | 0.11 | 78 | 1017.5 |
| 20260831074233 | 67 | 248 | 8.0 | 16.0 | 0.01 | 0.11 | 0.11 | 80 | 1017.4 |
| 20260831073232 | 66 | 270 | 7.0 | 13.0 | 0.01 | 0.11 | 0.11 | 81 | 1017.4 |
| 20260831072232 | 66 | 270 | 6.0 | 11.0 | 0.01 | 0.11 | 0.11 | 84 | 1017.5 |
| 20260831071232 | 65 | 248 | 5.0 | 11.0 | 0.01 | 0.11 | 0.11 | 86 | 1017.4 |
| 20260831070232 | 65 | 248 | 6.0 | 11.0 | 0.00 | 0.10 | 0.10 | 87 | 1017.3 |
| 20260831065232 | 65 | 270 | 5.0 | 10.0 | 0.00 | 0.10 | 0.10 | 89 | 1017.2 |
| 20260831064232 | 64 | 248 | 5.0 | 9.0 | 0.00 | 0.10 | 0.10 | 91 | 1017.1 |
| 20260831063231 | 64 | 248 | 4.0 | 9.0 | 0.00 | 0.10 | 0.10 | 93 | 1017.1 |
| 20260831062231 | 64 | 248 | 3.0 | 8.0 | 0.00 | 0.10 | 0.10 | 93 | 1016.9 |
| 20260831061231 | 63 | 225 | 4.0 | 8.0 | 0.00 | 0.10 | 0.10 | 94 | 1016.9 |
| 20260831060231 | 63 | 225 | 3.0 | 7.0 | 0.00 | 0.10 | 0.10 | 94 | 1016.9 |
| 20260831055233 | 63 | 225 | 3.0 | 6.0 | 0.00 | 0.10 | 0.10 | 94 | 1016.8 |
| 20260831054233 | 63 | 225 | 3.0 | 7.0 | 0.00 | 0.10 | 0.10 | 94 | 1016.7 |
| 20260831053232 | 63 | 225 | 3.0 | 5.0 | 0.00 | 0.10 | 0.10 | 94 | 1016.6 |
| 20260831052232 | 63 | 202 | 2.0 | 4.0 | 0.00 | 0.10 | 0.10 | 94 | 1016.6 |
| 20260831051232 | 63 | 225 | 2.0 | 4.0 | 0.00 | 0.10 | 0.10 | 94 | 1016.4 |
| 20260831050232 | 63 | 225 | 2.0 | 4.0 | 0.00 | 0.10 | 0.10 | 94 | 1016.4 |
| 20260831045232 | 63 | 225 | 2.0 | 5.0 | 0.00 | 0.10 | 0.10 | 94 | 1016.4 |
| 20260831044232 | 63 | 225 | 3.0 | 6.0 | 0.00 | 0.10 | 0.10 | 94 | 1016.3 |
| 20260831043232 | 63 | 248 | 3.0 | 6.0 | 0.00 | 0.10 | 0.10 | 94 | 1016.3 |
| 20260831042231 | 63 | 270 | 4.0 | 7.0 | 0.00 | 0.10 | 0.10 | 94 | 1016.2 |
| 20260831041231 | 63 | 248 | 2.0 | 6.0 | 0.00 | 0.10 | 0.10 | 94 | 1016.2 |
| 20260831040231 | 63 | 202 | 1.0 | 3.0 | 0.00 | 0.10 | 0.10 | 94 | 1015.9 |
| 20260831035231 | 63 | 202 | 1.0 | 2.0 | 0.00 | 0.10 | 0.10 | 93 | 1015.8 |
| 20260831034233 | 63 | 202 | 1.0 | 3.0 | 0.00 | 0.10 | 0.10 | 93 | 1015.9 |
| 20260831033232 | 63 | 202 | 1.0 | 4.0 | 0.00 | 0.10 | 0.10 | 93 | 1015.8 |
| 20260831032232 | 63 | 202 | 3.0 | 6.0 | 0.00 | 0.10 | 0.10 | 93 | 1015.8 |
| 20260831031232 | 63 | 225 | 3.0 | 6.0 | 0.01 | 0.10 | 0.10 | 93 | 1015.7 |
| 20260831030232 | 63 | 225 | 4.0 | 9.0 | 0.01 | 0.10 | 0.10 | 93 | 1015.7 |
| 20260831025232 | 63 | 225 | 5.0 | 10.0 | 0.01 | 0.10 | 0.10 | 93 | 1015.6 |
| 20260831024231 | 63 | 202 | 3.0 | 9.0 | 0.01 | 0.10 | 0.10 | 93 | 1015.6 |
| 20260831023231 | 63 | 202 | 4.0 | 7.0 | 0.01 | 0.10 | 0.10 | 93 | 1015.4 |
| 20260831022231 | 63 | 202 | 2.0 | 6.0 | 0.02 | 0.10 | 0.10 | 93 | 1015.1 |
| 20260831021231 | 63 | 180 | 3.0 | 7.0 | 0.01 | 0.09 | 0.09 | 93 | 1015.0 |
| 20260831020233 | 63 | 202 | 4.0 | 9.0 | 0.01 | 0.09 | 0.09 | 92 | 1015.0 |
| 20260831015232 | 63 | 202 | 5.0 | 15.0 | 0.01 | 0.09 | 0.09 | 92 | 1015.0 |
| 20260831014232 | 63 | 202 | 6.0 | 10.0 | 0.02 | 0.09 | 0.09 | 92 | 1015.2 |
| 20260831013232 | 63 | 202 | 5.0 | 14.0 | 0.04 | 0.09 | 0.09 | 92 | 1015.1 |
| 20260831012232 | 63 | 202 | 7.0 | 11.0 | 0.08 | 0.09 | 0.09 | 92 | 1015.2 |
| 20260831011232 | 63 | 202 | 4.0 | 13.0 | 0.09 | 0.09 | 0.09 | 91 | 1015.2 |
| 20260831010231 | 63 | 202 | 3.0 | 10.0 | 0.09 | 0.09 | 0.09 | 91 | 1015.0 |
| 20260831005231 | 63 | 202 | 3.0 | 6.0 | 0.09 | 0.09 | 0.09 | 90 | 1015.0 |
| 20260831004231 | 63 | 225 | 7.0 | 12.0 | 0.08 | 0.08 | 0.08 | 89 | 1015.0 |
| 20260831003231 | 63 | 225 | 7.0 | 18.0 | 0.06 | 0.06 | 0.06 | 87 | 1015.1 |
| 20260831002231 | 64 | 248 | 8.0 | 27.0 | 0.01 | 0.01 | 0.01 | 82 | 1015.5 |
| 20260831001233 | 64 | 225 | 1.0 | 3.0 | 0.00 | 0.00 | 0.00 | 81 | 1013.6 |
| 20260831000233 | 64 | 202 | 1.0 | 2.0 | 0.00 | 0.00 | 0.00 | 81 | 1013.5 |
| 20260830235232 | 64 | 158 | 0.0 | 4.0 | 0.00 | 0.00 | 0.00 | 82 | 1013.6 |
| 20260830234232 | 63 | 135 | 1.0 | 5.0 | 0.00 | 0.00 | 0.00 | 82 | 1013.8 |
| 20260830233232 | 63 | 112 | 0.0 | 3.0 | 0.00 | 0.00 | 0.00 | 83 | 1013.8 |
| 20260830232232 | 62 | 68 | 0.0 | 2.0 | 0.00 | 0.00 | 0.00 | 84 | 1014.0 |
| 20260830231232 | 62 | 68 | 2.0 | 4.0 | 0.00 | 0.00 | 0.00 | 83 | 1014.1 |
| 20260830230231 | 62 | 68 | 2.0 | 4.0 | 0.00 | 0.00 | 0.00 | 83 | 1014.1 |
| 20260830225231 | 63 | 90 | 1.0 | 4.0 | 0.00 | 0.00 | 0.00 | 82 | 1014.3 |
| 20260830224231 | 63 | 90 | 1.0 | 2.0 | 0.00 | 0.00 | 0.00 | 82 | 1014.4 |
| 20260830223233 | 64 | 90 | 2.0 | 4.0 | 0.00 | 0.00 | 0.00 | 81 | 1014.4 |
| 20260830222233 | 64 | 90 | 2.0 | 4.0 | 0.00 | 0.00 | 0.00 | 79 | 1014.5 |
| 20260830221232 | 65 | 135 | 2.0 | 4.0 | 0.00 | 0.00 | 0.00 | 78 | 1014.6 |
| 20260830220232 | 65 | 158 | 1.0 | 4.0 | 0.00 | 0.00 | 0.00 | 77 | 1014.7 |
| 20260830215232 | 65 | 0 | 0.0 | 0.0 | 0.00 | 0.00 | 0.00 | 78 | 1014.8 |
| 20260830214232 | 65 | 0 | 0.0 | 0.0 | 0.00 | 0.00 | 0.00 | 78 | 1014.8 |
| 20260830213232 | 65 | 0 | 0.0 | 0.0 | 0.00 | 0.00 | 0.00 | 77 | 1014.8 |
| 20260830212231 | 65 | 0 | 0.0 | 0.0 | 0.00 | 0.00 | 0.00 | 75 | 1014.8 |
| 20260830211231 | 66 | 0 | 0.0 | 0.0 | 0.00 | 0.00 | 0.00 | 74 | 1014.8 |
| 20260830210231 | 66 | 0 | 0.0 | 0.0 | 0.00 | 0.00 | 0.00 | 73 | 1014.8 |
| 20260830205231 | 67 | 0 | 0.0 | 0.0 | 0.00 | 0.00 | 0.00 | 71 | 1014.8 |
| 20260830204233 | 67 | 0 | 0.0 | 0.0 | 0.00 | 0.00 | 0.00 | 70 | 1014.7 |
| 20260830203232 | 68 | 0 | 0.0 | 0.0 | 0.00 | 0.00 | 0.00 | 70 | 1014.8 |
| 20260830202232 | 68 | 0 | 0.0 | 0.0 | 0.00 | 0.00 | 0.00 | 68 | 1014.8 |
| 20260830201232 | 68 | 180 | 0.0 | 3.0 | 0.00 | 0.00 | 0.00 | 67 | 1014.8 |
| 20260830200232 | 69 | 180 | 2.0 | 3.0 | 0.00 | 0.00 | 0.00 | 66 | 1015.0 |
| 20260830195232 | 69 | 180 | 3.0 | 4.0 | 0.00 | 0.00 | 0.00 | 65 | 1015.1 |
| 20260830194232 | 69 | 180 | 2.0 | 3.0 | 0.00 | 0.00 | 0.00 | 65 | 1015.1 |
| 20260830193232 | 70 | 180 | 3.0 | 4.0 | 0.00 | 0.00 | 0.00 | 63 | 1015.1 |
| 20260830192231 | 72 | 180 | 1.0 | 4.0 | 0.00 | 0.00 | 0.00 | 61 | 1015.1 |
| 20260830191231 | 72 | 0 | 0.0 | 0.0 | 0.00 | 0.00 | 0.00 | 58 | 1015.1 |
| 20260830190231 | 73 | 0 | 0.0 | 0.0 | 0.00 | 0.00 | 0.00 | 58 | 1015.1 |
| 20260830185233 | 74 | 0 | 0.0 | 0.0 | 0.00 | 0.00 | 0.00 | 58 | 1015.0 |
| 20260830184233 | 74 | 0 | 0.0 | 0.0 | 0.00 | 0.00 | 0.00 | 57 | 1014.9 |
| 20260830183232 | 74 | 0 | 0.0 | 0.0 | 0.00 | 0.00 | 0.00 | 56 | 1014.9 |
| 20260830182232 | 75 | 0 | 0.0 | 0.0 | 0.00 | 0.00 | 0.00 | 56 | 1014.8 |
| 20260830181232 | 75 | 270 | 1.0 | 2.0 | 0.00 | 0.00 | 0.00 | 55 | 1014.8 |
| 20260830180232 | 75 | 270 | 1.0 | 3.0 | 0.00 | 0.00 | 0.00 | 55 | 1014.9 |
| 20260830175232 | 76 | 270 | 1.0 | 3.0 | 0.00 | 0.00 | 0.00 | 54 | 1015.0 |